Regional Weather Roundup
Issued by NWS

Home | Current Version | Previous Version | Text Only | Print | Product List | Glossary Off
Versions: 1 2 3 4 5 6 7 8 9 10 11 12 13 14 15 16 17 18 19 20 21 22 23 24 25 26 27 28 29 30 31 32 33 34 35 36 37 38 39 40 41 42 43 44 45 46 47 48 49 50

000
ASUS45 KSLC 031410
RWRUT

UTAH REGIONAL WEATHER ROUNDUP
NATIONAL WEATHER SERVICE SALT LAKE CITY UT
700 AM MST SAT DEC 03 2016

UTZ001>011-023>025-031500-

NORTHERN UTAH

CITY           SKY/WX    TMP DP  RH WIND       PRES   REMARKS
BRIGHAM CITY     N/A     30  22  70 CALM      30.29R
HILL AFB       CLOUDY    22  15  73 E12       30.26R WCI  11
LOGAN          CLOUDY   N/A N/A N/A CALM      30.26R
OGDEN          CLOUDY    23  16  74 S7        30.27R WCI  15
SALT LAKE CITY MOCLDY    28  19  69 E6        30.28R WCI  22
TOOELE VALLEY  CLOUDY    27  19  74 S9        30.28R WCI  17
WENDOVER       CLOUDY    27  16  63 NE5       30.27R WCI  21
HEBER CITY     CLOUDY    14  10  85 SE3       30.23S
WEST JORDAN    CLOUDY    26  24  91 S10       30.27R WCI  16

$$

UTZ011>015-024>027-031500-

CENTRAL/NORTHEAST UTAH

CITY           SKY/WX    TMP DP  RH WIND       PRES   REMARKS
PROVO AIRPORT  MOCLDY    21  15  78 SE6       30.29R WCI  13
MOAB/CANYONLAN CLEAR     20  14  77 CALM      30.20S
DELTA          PTCLDY    18  14  86 N6        30.28R WCI   9
PRICE          CLEAR     16   9  74 SE3       30.16S
ROOSEVELT      CLOUDY    14  10  85 CALM      30.23S
VERNAL         CLOUDY    14   9  80 CALM      30.22R

$$

UTZ013>016-019>022-027-031500-

SOUTHERN UTAH

CITY           SKY/WX    TMP DP  RH WIND       PRES   REMARKS
BRYCE CANYON   NOT AVBL
CEDAR CITY     CLEAR     12   7  80 N3        30.20F
MILFORD        CLEAR     15  10  80 W7        30.26R WCI   5
ST GEORGE      MOSUNNY   34  14  44 NE5       30.25S WCI  30
HANKSVILLE     CLEAR     18  14  86 CALM      30.25S
KANAB          CLEAR     28  12  50 N10       30.22S WCI  19
BLANDING       CLEAR     20  15  80 CALM      30.21S

$$

REGIONAL REPORTS     COLORADO/ARIZONA

CITY           SKY/WX    TMP DP  RH WIND       PRES   REMARKS
CRAIG, CO      CLOUDY     8   4  83 SE3       30.17F
GRAND JUNCTION CLOUDY    17  15  92 E5        30.21S WCI  10
RIFLE, CO      CLOUDY    19  12  74 W6        30.22S WCI  11
MONTROSE, CO   CLOUDY    25  21  85 SE6       30.23R WCI  18
CORTEZ, CO     CLOUDY    19  16  88 NE6       30.14R WCI  11
COLORADO CITY    N/A     21  18  86 N6        30.21R WCI  14
PAGE, AZ       CLEAR     28  10  46 CALM      30.19R
GRAND CANYON   CLEAR     27  12  53 NE12      30.11S WCI  17
KINGMAN, AZ    CLEAR     31  12  45 E9        30.14R WCI  23
FLAGSTAFF, AZ  CLEAR     26  14  60 NE17      30.07R WCI  13

$$

REGIONAL REPORTS    NEVADA/IDAHO/WYOMING

CITY           SKY/WX    TMP DP  RH WIND       PRES   REMARKS
LAS VEGAS, NV  CLEAR     44   8  23 N16       30.22R
ELY, NY        PTCLDY     4  -1  80 S13       30.25R WCI -13
ELKO, NV       CLOUDY    24  16  71 SW9       30.30R WCI  14
POCATELLO, ID  CLOUDY    29  19  66 SW8       30.21R WCI  21
BURLEY, ID     CLOUDY    31  19  61 SW12      30.23R WCI  22
FORT BRIDGER,  CLOUDY    19   9  63 W21       30.14R WCI   3
EVANSTON, WY   CLOUDY    15   8  73 SW13      30.16R WCI   1
ROCK SPRINGS,  CLOUDY    16   8  71 SW20      30.09R WCI  -1

$$



USA.gov is the U.S. government's official web portal to all federal, state and local government web resources and services.